Temp
64 64 64 63 63 63 63 63 62 62 62 63 63 62 62 62 62 62 62 62 62 61 61 62 61 62 56 47 48 65 68 67 64 61 56 52 46 46 42 41 43 41 44 49 50 51 51
64 63 63 63 63 63 63 63 63 62 62 62 62 62 61 61 61 61 61 61 62 61 61 60 62 61 52 42 60 66 63 62 62 58 54 52 49 51 45 40 39 43 45 45 48 48 50
63 63 63 63 62 62 63 62 61 62 62 62 61 60 60 61 61 61 60 61 61 62 61 61 61 59 51 51 63 63 63 60 61 59 54 57 56 49 46 39 48 47 38 43 44 47 46
63 63 63 62 62 60 59 59 59 60 61 60 60 59 59 60 59 60 59 59 60 60 59 59 60 55 46 61 61 62 62 60 62 61 58 57 54 50 46 46 42 38 37 29 43 46 47
62 62 61 60 57 57 59 58 59 60 59 58 57 57 56 57 58 59 58 56 59 58 58 58 53 50 46 63 57 61 61 57 58 58 60 60 51 44 43 36 31 34 23 28 36 47 47
62 59 58 59 58 59 59 59 59 59 59 57 54 54 54 55 57 58 58 55 57 57 57 58 56 46 50 49 57 60 60 59 56 53 50 47 45 39 39 33 20 26 27 34 34 42 45
58 60 60 61 61 61 61 60 60 59 58 57 56 56 54 56 58 58 54 51 45 42 48 45 46 49 50 57 60 56 59 55 53 50 39 44 35 30 33 35 35 35 32 31 37 44 42
59 61 61 60 60 60 60 60 59 59 58 57 56 56 57 57 57 58 52 44 47 47 39 47 49 51 56 57 48 53 58 46 44 38 43 37 32 38 41 40 38 37 34 32 38 45 40
60 60 60 60 60 60 58 59 59 58 58 57 55 55 56 55 56 52 48 47 51 52 40 43 47 48 51 53 48 47 53 48 44 38 38 31 38 45 41 39 37 36 34 33 35 40 40
60 60 60 60 59 58 58 57 57 56 56 55 55 55 55 55 50 48 45 52 53 53 33 36 42 47 50 51 44 55 54 48 43 37 39 37 44 42 41 40 40 33 43 43 38 34 29
59 59 59 59 59 58 58 58 57 56 55 54 54 55 54 55 48 47 49 52 52 48 21 38 41 55 52 45 46 46 55 48 39 40 40 36 40 37 36 39 42 38 43 39 38 36 32
59 59 59 59 58 58 58 58 58 57 55 55 55 56 56 51 47 50 52 52 48 31 21 33 41 40 41 44 46 48 47 49 47 41 41 39 46 43 41 44 44 45 40 39 39 36 28
58 59 58 58 58 58 58 57 57 57 56 56 56 56 55 57 45 51 51 44 29 24 37 32 36 40 40 39 43 42 39 35 32 27 31 39 39 44 44 37 42 40 36 26 27 27 27
58 58 58 58 58 58 57 57 57 56 56 56 56 55 53 55 52 50 45 36 25 33 32 42 41 38 36 41 42 41 37 32 39 38 30 24 25 38 43 40 36 38 36 29 22 26 29
58 58 58 57 57 57 57 57 56 56 55 55 55 46 46 49 53 49 39 27 29 33 38 39 40 34 35 40 39 38 35 36 40 44 32 32 31 44 43 44 42 39 34 39 31 34 29
57 58 58 57 57 56 56 57 56 56 55 55 43 42 43 52 51 44 32 32 34 42 43 41 32 38 30 34 35 34 36 42 43 45 45 38 29 39 41 44 43 38 43 32 32 24 25
57 57 58 57 57 56 56 56 56 56 56 55 42 36 45 50 46 36 30 33 37 44 45 40 37 38 37 38 38 35 36 42 46 43 44 38 33 35 40 38 35 37 37 40 38 34 29
57 57 57 57 56 56 56 55 55 55 55 51 40 31 47 47 32 36 33 36 42 41 46 45 44 43 40 39 39 37 38 41 46 45 38 42 37 30 36 44 45 41 40 41 28 32 30
57 57 57 56 56 56 56 56 54 55 55 42 36 38 45 43 27 29 38 39 40 43 45 44 43 46 45 41 38 43 42 48 48 47 42 44 33 25 31 37 41 38 42 42 40 34 29
56 56 57 56 56 55 56 55 53 54 55 43 36 26 35 38 39 32 34 33 38 44 44 46 44 47 44 41 43 39 40 46 47 48 49 46 37 30 23 30 35 34 40 41 37 26 30
56 56 56 56 56 56 56 55 54 53 54 43 37 32 36 29 34 34 33 34 39 37 44 46 45 44 42 38 39 39 42 43 47 50 45 43 30 28 37 40 39 36 37 39 36 37 31
55 56 56 56 56 56 56 55 55 54 53 41 36 34 41 40 37 32 34 35 39 41 42 40 40 44 42 38 38 37 42 41 38 44 42 42 29 32 33 39 38 34 38 39 41 41 39
55 55 56 56 56 56 55 55 55 54 51 40 41 43 40 37 33 32 34 38 40 41 44 45 42 41 40 41 43 43 44 44 42 40 39 39 32 28 25 34 34 29 35 37 38 40 40
55 55 55 56 56 55 55 55 54 54 51 44 43 47 39 34 34 36 41 42 40 40 39 43 43 41 43 47 47 45 43 44 44 43 43 38 35 30 24 27 19 35 41 41 40 43 42
54 55 55 55 56 55 55 55 54 54 54 44 44 45 40 30 38 38 40 39 39 40 39 41 42 44 45 42 39 36 35 37 39 40 41 41 36 30 25 21 31 34 39 39 38 38 44
54 54 55 55 55 54 54 54 54 55 55 45 42 41 41 35 32 39 38 38 35 33 37 41 45 46 43 40 37 28 26 30 31 35 41 43 40 32 27 24 24 36 41 44 42 31 45
53 54 54 55 55 54 54 54 54 54 54 46 42 43 39 33 34 37 35 35 39 36 35 38 40 42 42 35 32 28 29 34 28 28 30 33 33 28 28 23 32 40 43 44 29 34 44
53 53 54 54 55 55 54 54 54 54 54 47 42 44 41 33 35 39 40 36 38 38 35 39 39 40 37 33 31 30 29 33 29 33 32 32 28 27 28 24 24 43 41 36 40 41 44
53 53 53 53 54 54 54 54 54 54 54 50 40 46 45 38 36 41 40 40 39 39 35 38 38 38 38 31 32 32 31 30 30 26 34 30 35 32 33 33 42 42 41 43 45 44 43
MSLP
1020.61 1020.19 1019.76 1019.29 1018.74 1018.27 1017.76 1017.22 1016.68 1016.34 1015.95 1015.59 1015.26 1015.13 1014.94 1014.80 1014.62 1014.43 1014.24 1013.97 1013.73 1013.16 1012.92 1013.43 1013.98 1014.33 1015.31 1015.46 1014.41 1014.15 1014.35 1014.74 1015.10 1015.35 1015.80 1016.15 1016.62 1016.92 1017.15 1017.26 1017.27 1016.84 1016.22 1015.87 1015.41 1014.94 1014.56
1020.18 1019.68 1019.16 1018.68 1018.02 1017.64 1017.25 1016.84 1016.37 1015.86 1015.41 1015.06 1014.79 1014.55 1014.27 1014.19 1014.17 1013.98 1013.83 1013.45 1013.05 1012.86 1012.95 1013.51 1013.65 1013.88 1014.66 1014.67 1013.71 1013.91 1014.40 1014.94 1015.19 1015.42 1015.78 1016.27 1016.44 1016.76 1017.10 1017.34 1017.59 1016.77 1016.49 1015.75 1015.23 1014.81 1014.34
1019.87 1019.04 1018.44 1017.88 1017.39 1016.98 1016.62 1016.26 1015.93 1015.40 1014.87 1014.39 1014.27 1014.23 1013.88 1013.66 1013.69 1013.55 1013.25 1012.72 1012.27 1012.07 1012.45 1013.36 1014.13 1013.53 1014.17 1013.89 1013.75 1014.21 1014.57 1014.91 1015.11 1015.30 1015.80 1016.10 1016.42 1016.90 1017.19 1017.47 1017.25 1016.85 1016.40 1015.33 1014.71 1014.20 1013.82
1019.20 1018.62 1017.81 1017.24 1016.69 1016.46 1016.22 1015.85 1015.48 1014.84 1014.24 1014.09 1013.70 1013.63 1013.48 1013.19 1013.39 1013.21 1012.80 1011.34 1011.01 1011.88 1012.51 1013.31 1013.76 1013.80 1013.91 1014.08 1013.74 1014.32 1014.61 1014.89 1015.06 1015.35 1015.94 1016.20 1016.55 1016.95 1017.30 1017.61 1017.32 1016.93 1016.49 1015.58 1014.15 1013.81 1013.20
1018.89 1018.00 1017.27 1016.32 1016.48 1016.27 1015.94 1015.42 1014.97 1014.31 1013.98 1013.81 1013.35 1013.12 1013.22 1013.10 1013.13 1013.02 1012.72 1011.84 1011.64 1012.51 1012.96 1013.31 1013.96 1013.97 1013.98 1013.74 1013.91 1014.28 1014.56 1014.77 1015.08 1015.62 1016.06 1016.32 1016.76 1017.05 1017.62 1017.94 1017.77 1017.02 1016.51 1015.66 1014.24 1013.41 1012.94
1018.51 1017.88 1017.52 1016.84 1016.43 1015.83 1015.27 1014.77 1014.24 1013.84 1013.56 1013.38 1013.34 1013.14 1012.99 1013.01 1012.90 1012.85 1012.77 1012.59 1012.50 1012.92 1013.12 1013.65 1013.65 1014.27 1014.25 1013.71 1013.75 1014.06 1014.49 1014.67 1015.06 1015.81 1016.51 1016.80 1016.94 1017.19 1017.34 1017.79 1017.77 1017.02 1016.51 1015.59 1014.85 1013.38 1013.24
1018.76 1017.98 1017.29 1016.35 1015.76 1015.02 1014.31 1013.82 1013.35 1013.18 1013.14 1013.06 1012.81 1012.53 1012.58 1012.55 1012.55 1012.52 1012.94 1013.13 1013.43 1013.93 1013.49 1013.41 1013.46 1013.11 1013.31 1013.48 1013.52 1013.98 1014.48 1014.65 1015.15 1015.84 1016.42 1016.77 1017.15 1017.00 1016.84 1017.11 1016.69 1016.47 1016.06 1015.25 1014.17 1013.26 1012.88
1018.62 1017.81 1017.06 1016.20 1015.33 1014.73 1013.88 1013.09 1012.63 1012.41 1012.46 1012.59 1012.40 1012.26 1012.14 1012.35 1012.45 1011.74 1012.59 1013.22 1013.51 1013.94 1013.67 1013.67 1013.66 1013.46 1013.52 1013.61 1014.03 1014.36 1014.52 1015.20 1015.71 1016.01 1016.12 1017.01 1016.48 1016.04 1016.16 1016.25 1016.19 1015.78 1015.40 1014.74 1013.49 1012.67 1012.74
1018.51 1017.86 1017.05 1016.20 1015.37 1014.74 1013.96 1012.58 1011.93 1011.79 1011.85 1012.07 1012.33 1012.30 1012.28 1012.50 1012.35 1012.73 1013.05 1013.60 1013.74 1013.67 1013.76 1013.99 1014.09 1013.81 1013.86 1013.90 1013.80 1014.25 1014.67 1015.06 1015.32 1015.75 1015.78 1016.09 1015.21 1014.96 1015.48 1015.30 1015.15 1014.78 1014.42 1013.76 1013.19 1012.40 1012.05
1018.45 1017.81 1017.12 1016.38 1015.55 1014.94 1014.29 1013.19 1012.46 1012.09 1011.53 1011.90 1012.02 1012.16 1012.51 1012.39 1012.63 1013.01 1013.30 1013.56 1013.75 1013.74 1013.85 1014.46 1013.95 1013.84 1014.16 1014.08 1014.10 1014.17 1014.58 1015.03 1014.96 1015.10 1015.25 1015.09 1014.34 1014.36 1014.40 1014.12 1014.11 1013.59 1013.01 1012.77 1012.68 1012.53 1012.05
1018.43 1017.76 1017.12 1016.46 1015.84 1015.37 1014.70 1013.58 1013.03 1012.66 1012.43 1012.22 1012.29 1012.42 1012.65 1012.63 1013.18 1013.14 1013.60 1013.51 1013.65 1013.80 1014.10 1014.95 1014.43 1014.19 1014.13 1014.39 1014.34 1014.61 1014.46 1014.76 1014.91 1014.87 1014.96 1014.58 1013.99 1013.92 1013.81 1013.29 1013.17 1012.81 1012.44 1012.41 1012.23 1011.83 1011.71
1018.58 1017.95 1017.40 1016.66 1016.03 1015.58 1015.07 1014.43 1013.60 1013.22 1012.83 1012.54 1012.51 1012.62 1012.82 1013.23 1013.48 1013.68 1013.61 1013.73 1014.04 1014.36 1014.46 1014.56 1014.62 1014.19 1014.45 1014.44 1014.39 1014.69 1014.76 1014.95 1014.82 1014.84 1014.43 1014.08 1013.51 1013.48 1013.16 1012.73 1012.73 1012.46 1012.27 1011.49 1011.28 1011.29 1011.06
1018.78 1018.15 1017.62 1017.03 1016.34 1015.99 1015.41 1015.02 1014.51 1014.19 1013.97 1013.72 1013.38 1013.40 1013.23 1012.92 1013.81 1013.90 1013.83 1014.04 1014.30 1013.92 1014.60 1014.81 1014.35 1014.46 1014.42 1014.41 1014.40 1014.58 1014.80 1014.87 1014.81 1014.82 1014.19 1013.48 1013.11 1012.87 1012.88 1012.91 1012.44 1012.50 1012.21 1011.70 1010.94 1010.48 1010.51
1018.99 1018.43 1017.89 1017.34 1016.78 1016.47 1015.89 1015.51 1015.23 1015.07 1014.67 1014.38 1014.13 1013.87 1013.81 1013.72 1013.85 1013.83 1014.02 1014.42 1014.08 1014.36 1014.04 1014.14 1014.12 1014.65 1014.48 1014.21 1014.24 1014.11 1014.29 1014.41 1014.33 1014.43 1014.33 1013.74 1013.08 1012.95 1013.10 1012.95 1012.59 1012.43 1012.22 1011.83 1011.07 1010.28 1010.08
1019.23 1018.71 1018.18 1017.64 1017.23 1016.90 1016.53 1016.12 1015.88 1015.52 1015.21 1014.98 1014.76 1014.73 1014.71 1014.68 1014.33 1014.33 1014.60 1014.75 1015.15 1014.76 1014.43 1013.85 1013.89 1013.95 1013.93 1013.73 1013.67 1013.87 1013.86 1013.75 1013.59 1013.67 1014.23 1013.68 1013.29 1012.91 1012.79 1012.67 1012.75 1011.93 1011.61 1011.23 1010.87 1010.24 1010.39
1019.34 1018.78 1018.42 1017.93 1017.60 1017.34 1017.13 1016.71 1016.54 1016.12 1015.74 1015.43 1015.50 1015.52 1015.63 1015.00 1014.59 1014.73 1015.04 1015.38 1015.46 1014.87 1014.31 1014.10 1013.43 1013.07 1013.40 1013.48 1013.52 1013.71 1013.48 1013.35 1013.33 1013.50 1013.51 1013.76 1013.74 1013.03 1012.71 1012.35 1011.80 1011.82 1011.30 1011.02 1010.69 1010.27 1010.44
1019.57 1019.03 1018.59 1018.29 1017.91 1017.68 1017.42 1017.20 1016.88 1016.62 1016.09 1015.66 1015.87 1016.35 1016.28 1015.47 1015.31 1015.50 1016.11 1016.22 1015.67 1014.65 1014.13 1013.73 1012.89 1012.68 1012.91 1013.17 1013.67 1013.66 1013.57 1013.51 1013.31 1013.56 1013.77 1013.86 1014.03 1013.05 1012.61 1011.87 1011.20 1011.38 1010.55 1010.06 1009.77 1010.03 1010.62
1019.54 1019.15 1018.87 1018.53 1018.19 1017.88 1017.63 1017.41 1017.14 1016.84 1016.41 1016.01 1016.57 1017.15 1016.51 1016.00 1016.23 1016.75 1016.99 1016.70 1015.69 1014.53 1013.54 1012.99 1012.50 1012.32 1012.56 1012.55 1012.86 1013.12 1013.28 1013.30 1013.35 1013.37 1013.52 1013.51 1013.48 1012.85 1011.86 1010.91 1010.62 1010.46 1009.92 1009.36 1009.75 1010.54 1011.01
1019.61 1019.11 1018.74 1018.49 1018.22 1017.87 1017.55 1017.30 1017.30 1017.11 1016.99 1017.31 1017.64 1017.84 1016.89 1016.70 1017.43 1017.56 1017.39 1016.52 1015.57 1014.37 1013.59 1013.09 1012.65 1012.25 1012.08 1012.30 1012.66 1012.71 1013.03 1012.77 1012.75 1012.83 1012.77 1012.91 1013.15 1012.98 1011.90 1011.37 1010.83 1010.47 1009.67 1009.16 1009.41 1010.23 1011.75
1019.58 1018.99 1018.60 1018.42 1018.00 1017.72 1017.49 1017.30 1017.19 1017.21 1017.20 1017.47 1018.04 1018.23 1017.85 1017.59 1017.58 1017.48 1017.26 1016.43 1015.49 1014.55 1013.89 1013.33 1012.91 1012.30 1012.19 1012.26 1012.22 1012.66 1012.61 1012.44 1012.34 1012.32 1012.43 1012.67 1013.25 1013.54 1013.41 1012.93 1012.33 1011.46 1010.46 1009.54 1009.53 1011.24 1012.56
1019.46 1018.87 1018.44 1018.03 1017.81 1017.40 1017.16 1017.15 1017.22 1017.35 1017.40 1017.76 1017.84 1018.42 1017.95 1017.93 1017.80 1017.49 1017.11 1016.47 1015.47 1014.69 1013.91 1013.50 1013.08 1012.88 1012.65 1013.10 1012.95 1012.83 1012.47 1012.28 1012.16 1012.07 1012.14 1012.72 1013.81 1013.86 1013.39 1012.88 1012.38 1012.12 1011.47 1010.77 1010.54 1011.52 1011.80
1019.29 1018.80 1018.45 1017.93 1017.48 1017.12 1016.71 1016.84 1017.09 1017.50 1017.68 1017.92 1017.99 1018.03 1017.62 1017.55 1017.65 1017.36 1016.95 1016.24 1015.52 1014.90 1014.44 1014.26 1014.08 1013.75 1013.39 1013.83 1014.03 1013.56 1012.85 1012.69 1012.87 1012.50 1012.49 1013.03 1014.02 1014.26 1014.25 1013.58 1013.10 1012.69 1012.02 1011.65 1011.66 1011.97 1012.46
1019.15 1018.77 1018.31 1017.80 1016.92 1016.17 1016.13 1016.24 1016.83 1017.51 1017.93 1018.32 1017.84 1017.39 1017.63 1018.02 1017.77 1017.40 1016.63 1016.08 1015.66 1015.11 1014.85 1014.66 1014.52 1014.20 1014.15 1014.22 1013.93 1013.64 1013.07 1012.92 1012.90 1013.03 1013.18 1013.40 1014.15 1014.87 1014.99 1014.16 1013.68 1013.67 1013.10 1012.76 1012.48 1012.31 1012.49
1018.96 1018.48 1018.13 1017.61 1016.71 1016.17 1015.60 1015.71 1016.78 1017.58 1018.17 1018.66 1018.10 1017.77 1018.10 1018.61 1018.09 1017.03 1016.35 1015.86 1015.60 1015.29 1015.11 1014.96 1014.64 1014.51 1014.68 1014.20 1013.66 1013.32 1013.20 1013.17 1013.06 1013.22 1013.22 1013.74 1014.29 1014.95 1015.40 1014.86 1014.51 1013.56 1012.99 1012.83 1012.62 1012.58 1012.55
1018.70 1018.60 1018.06 1017.13 1016.74 1016.20 1015.83 1016.16 1016.66 1017.75 1018.30 1018.86 1018.39 1018.37 1018.46 1018.69 1018.11 1017.34 1016.57 1016.25 1015.93 1015.63 1015.38 1015.14 1014.98 1014.90 1014.77 1014.67 1014.53 1014.23 1014.05 1013.90 1013.70 1013.49 1013.40 1013.61 1014.28 1015.14 1015.50 1015.43 1014.63 1013.74 1013.08 1012.68 1012.45 1012.94 1012.98
1018.68 1018.61 1018.14 1017.33 1016.91 1017.05 1016.42 1016.81 1017.26 1017.61 1017.94 1018.52 1018.76 1018.72 1018.79 1018.93 1018.49 1017.94 1017.30 1016.64 1016.45 1016.27 1016.03 1015.54 1015.09 1014.83 1014.88 1015.13 1015.14 1015.34 1015.18 1014.63 1014.37 1013.89 1013.59 1013.79 1014.21 1015.31 1015.34 1015.39 1014.49 1013.09 1012.52 1012.30 1012.36 1012.83 1012.70
1018.53 1018.31 1017.81 1017.54 1017.39 1017.13 1016.72 1016.49 1017.17 1017.53 1017.75 1018.33 1018.75 1018.85 1019.18 1019.24 1018.61 1018.32 1018.09 1017.74 1017.09 1016.82 1016.67 1016.15 1015.67 1015.36 1015.32 1015.90 1016.21 1016.22 1015.95 1015.35 1015.05 1014.57 1014.21 1014.46 1014.79 1015.41 1015.53 1015.19 1013.90 1012.71 1012.47 1012.51 1012.95 1012.95 1012.44
1018.39 1018.14 1017.87 1017.60 1017.13 1017.14 1017.03 1017.14 1016.92 1017.28 1017.78 1018.00 1018.63 1018.54 1019.22 1019.63 1019.16 1018.76 1018.60 1018.39 1017.81 1017.78 1017.77 1016.90 1016.51 1016.22 1016.28 1016.70 1016.92 1016.75 1016.50 1015.92 1015.61 1014.86 1014.41 1014.73 1015.07 1015.26 1015.11 1014.75 1013.70 1012.38 1012.73 1012.78 1012.29 1012.24 1012.43
1017.84 1018.03 1017.68 1017.45 1017.23 1016.64 1017.03 1017.36 1017.51 1017.39 1017.28 1017.90 1018.62 1018.31 1018.41 1019.29 1019.76 1019.36 1018.99 1018.89 1018.91 1018.73 1018.55 1017.60 1017.48 1017.03 1016.88 1017.25 1017.34 1017.11 1016.83 1016.46 1016.12 1015.73 1014.55 1014.48 1014.09 1014.17 1014.02 1013.14 1012.24 1011.99 1011.81 1011.76 1011.90 1012.28 1012.74
Wind_Speed
21 21 22 22 22 22 22 23 23 20 20 19 18 17 16 16 15 16 18 17 18 13 14 16 17 15 6 4 6 10 14 12 7 2 4 5 4 2 3 3 5 9 7 9 11 12 12
23 23 23 23 21 21 22 23 23 23 20 21 20 17 16 13 15 15 18 21 17 15 15 15 16 17 4 4 4 12 10 7 7 5 3 2 3 3 2 3 4 4 11 15 13 15 14
25 25 25 25 25 22 21 21 26 26 24 22 21 18 16 12 13 15 19 23 20 20 18 14 13 7 4 4 8 7 12 6 4 3 4 4 3 4 3 4 7 10 10 10 10 11 10
28 28 29 28 27 21 19 22 29 29 26 24 21 15 15 11 13 14 19 27 10 19 19 12 13 3 5 3 6 9 5 5 5 2 2 5 1 2 2 4 6 5 2 4 3 3 8
30 31 31 26 22 18 19 22 27 26 23 19 19 14 17 15 13 10 13 10 19 15 15 15 5 0 3 3 6 8 6 6 7 5 3 5 4 4 3 2 4 4 3 4 10 3 7
33 23 19 23 19 20 22 23 24 23 20 14 12 15 9 12 12 8 5 6 11 11 9 5 5 3 1 3 6 6 6 6 9 8 4 2 0 2 3 2 4 1 4 7 12 5 12
19 25 26 22 22 24 24 23 22 19 16 14 14 13 10 15 6 9 3 3 3 4 2 4 10 1 9 6 5 3 5 4 2 4 5 5 2 7 8 9 7 6 7 14 17 17 13
20 25 26 25 26 26 25 23 22 19 18 11 10 7 4 6 7 5 7 3 4 6 2 1 3 4 7 2 5 6 8 5 4 8 5 1 10 11 10 10 11 13 15 19 18 9 4
23 25 25 26 26 26 27 25 19 18 16 7 6 6 5 5 6 4 3 4 3 5 2 6 6 1 2 2 3 8 7 3 6 6 7 7 7 2 10 5 8 13 12 10 13 7 12
24 24 25 25 24 25 25 25 24 22 10 5 7 8 1 2 4 3 2 2 2 3 3 2 6 5 5 1 1 8 7 1 4 5 7 7 8 8 6 10 9 12 8 9 8 2 3
22 23 22 23 24 23 25 23 20 19 14 10 5 9 4 3 1 3 1 2 2 1 4 4 4 4 6 1 7 2 2 0 4 4 1 6 1 1 4 6 2 7 9 11 13 8 2
21 22 21 22 23 23 22 22 20 20 19 18 15 11 8 3 3 2 4 4 2 1 4 4 3 6 5 2 4 3 2 1 3 4 5 8 4 4 5 4 6 7 9 12 6 3 5
21 21 22 21 22 22 20 20 19 19 18 16 14 10 4 5 2 2 1 2 3 3 4 2 6 4 1 3 6 5 5 4 3 2 2 3 4 2 2 4 3 6 2 3 4 4 2
21 21 20 21 21 20 19 18 18 16 13 12 9 8 7 6 3 3 3 3 5 8 5 3 5 8 3 7 5 5 3 3 7 4 2 1 5 1 2 3 3 5 2 3 4 4 2
21 20 20 19 20 22 19 17 16 13 12 12 10 4 4 3 2 2 4 4 5 3 4 4 5 4 2 3 4 5 4 3 1 7 3 3 2 2 3 2 1 2 4 5 4 5 2
20 20 19 18 18 19 20 17 13 15 15 13 2 3 6 6 6 4 5 6 3 4 5 3 2 4 3 2 2 2 1 3 2 5 5 2 4 1 4 4 9 7 5 1 2 4 4
20 21 19 19 17 17 17 17 14 14 18 18 2 4 5 9 4 5 5 4 3 5 4 3 3 4 4 4 2 1 3 3 4 5 7 2 1 3 3 5 2 2 4 4 2 3 2
19 19 20 19 18 17 16 14 15 13 19 7 3 4 5 5 6 2 4 4 5 5 2 3 3 5 3 1 3 4 3 5 1 5 2 4 2 3 3 3 3 3 6 2 4 3 4
18 18 19 18 18 17 17 14 9 10 11 3 3 1 4 3 5 3 3 3 3 5 7 6 6 4 2 2 4 3 3 6 7 4 3 1 3 4 7 6 6 4 7 4 3 4 6
17 17 17 18 18 17 15 13 2 6 9 3 3 3 5 4 1 3 2 4 1 3 4 3 3 3 3 4 3 3 1 3 3 2 5 0 4 2 4 5 4 7 12 10 5 6 5
16 17 17 17 18 17 13 7 2 3 4 3 2 1 4 2 4 3 2 2 3 3 4 6 5 7 4 5 3 3 2 2 4 3 1 4 3 4 4 4 4 5 7 11 14 7 6
16 16 18 17 18 19 13 4 3 5 1 3 2 3 2 2 0 2 2 1 4 4 5 6 5 5 9 5 3 4 4 5 2 6 4 2 0 2 5 6 7 6 13 10 12 11 9
15 17 17 19 19 15 6 4 8 9 4 2 3 3 4 4 4 2 2 1 3 1 3 4 4 3 7 6 6 6 1 2 2 2 5 2 3 3 3 3 5 6 5 5 3 6 6
15 16 17 19 18 9 10 10 15 13 7 1 2 2 3 1 2 2 1 2 2 2 3 2 5 3 2 7 6 2 2 4 6 5 2 2 2 3 3 3 4 6 1 1 4 4 5
13 16 16 17 16 6 16 18 19 12 9 2 3 3 2 1 4 6 3 2 1 2 1 1 2 3 4 4 3 3 4 2 1 0 4 3 3 2 3 1 2 1 4 5 5 4 5
12 14 16 17 9 6 14 15 13 10 8 2 1 0 2 3 5 3 3 2 2 1 3 3 2 3 4 2 3 2 1 2 3 6 3 1 3 4 2 3 4 5 3 2 3 3 7
9 11 11 13 9 4 7 14 12 9 5 3 1 2 2 0 3 4 1 2 3 1 2 1 2 3 3 3 2 1 2 1 2 3 1 2 2 3 1 1 6 3 4 3 3 6 5
7 10 11 9 5 5 8 6 9 7 4 5 2 2 4 1 4 4 4 3 4 3 1 4 4 3 3 3 2 2 2 3 1 4 3 4 4 4 2 1 7 6 4 8 5 2 5
5 9 11 8 7 4 8 6 6 4 4 5 0 1 3 4 3 2 2 1 0 3 1 3 2 1 2 3 0 0 2 1 3 4 1 3 7 4 8 7 5 6 4 3 5 6 5
Wind_Direction
323 324 323 324 325 323 320 319 319 319 312 306 304 296 296 305 312 317 317 310 301 279 205 170 170 165 146 200 228 162 150 153 115 170 220 158 145 168 209 245 306 269 272 273 280 280 273
321 319 321 317 313 317 320 320 318 316 311 305 301 298 289 294 303 315 314 309 294 277 189 173 178 153 142 223 118 148 125 129 168 168 206 229 191 123 275 254 215 291 305 289 280 277 282
323 318 313 311 309 312 314 319 328 313 306 305 304 300 299 293 299 313 317 305 284 284 164 159 191 148 157 174 149 151 153 161 191 177 216 84 122 162 180 260 307 284 291 277 250 255 258
323 322 317 312 307 307 316 330 324 314 311 312 305 305 301 322 306 319 324 315 247 146 136 147 173 97 137 224 142 150 137 162 139 119 83 90 54 142 191 348 318 243 255 325 207 269 248
325 321 324 326 1 349 324 307 316 315 319 321 343 307 313 322 304 323 340 359 115 122 135 153 130 223 113 132 159 159 160 189 156 118 177 104 121 164 110 256 309 270 288 300 311 235 257
328 356 346 339 339 328 321 313 312 319 320 320 319 299 292 286 291 316 344 43 98 130 121 93 81 118 280 193 160 171 192 224 150 155 146 130 154 204 210 165 238 248 310 277 277 312 292
26 352 342 340 338 329 331 323 320 316 314 305 305 299 254 273 298 299 116 143 70 12 316 102 156 79 138 102 68 98 153 87 52 176 203 173 181 234 222 227 234 270 282 285 287 282 294
0 347 346 347 343 337 332 325 326 314 310 300 329 321 12 63 12 1 117 125 62 153 50 322 37 22 97 89 128 179 138 148 182 207 205 152 244 227 232 236 253 265 274 274 280 259 275
349 352 348 352 348 352 354 350 334 327 321 298 337 347 33 43 36 58 67 78 60 345 43 139 176 185 110 48 132 158 147 196 208 219 223 186 238 139 216 240 254 259 246 257 265 295 267
355 352 357 358 4 2 359 14 20 8 1 335 304 317 275 41 81 127 76 68 168 307 108 65 164 144 172 222 287 135 190 280 233 233 233 232 251 222 254 264 236 268 239 267 296 264 272
358 357 3 1 4 13 5 9 12 12 17 20 357 58 95 78 13 48 135 197 42 355 102 136 100 311 159 211 136 136 116 161 259 272 109 252 313 112 267 242 130 261 331 305 284 258 278
357 1 3 4 5 7 10 10 21 31 32 67 82 80 87 47 45 81 125 188 134 87 90 116 142 133 125 228 155 131 175 259 257 295 269 244 197 203 231 297 245 308 291 275 239 233 243
356 4 6 3 8 7 12 19 22 41 51 51 61 65 8 43 122 163 91 51 71 43 144 138 123 143 132 172 133 166 192 206 189 56 298 292 209 152 57 331 241 221 280 315 245 191 358
357 6 8 9 8 6 8 16 22 33 41 45 25 7 13 64 73 68 44 35 52 27 66 189 129 121 152 153 186 195 189 264 220 196 295 245 327 119 80 221 311 314 315 269 306 359 46
356 4 3 12 12 8 7 9 13 20 19 7 347 358 19 6 9 28 63 48 31 34 322 120 144 98 114 185 147 176 233 208 214 187 204 313 272 141 219 290 235 105 227 178 254 215 158
355 360 360 9 6 2 5 9 8 360 353 1 14 44 3 333 355 31 66 76 57 354 25 12 183 144 129 142 109 69 179 352 97 65 3 19 294 322 287 285 225 219 335 341 250 9 64
353 354 360 358 4 356 354 358 357 351 343 332 25 56 305 339 24 40 51 48 329 296 189 231 308 99 106 126 117 209 252 15 17 46 343 58 238 313 248 221 268 241 289 242 247 138 119
353 356 356 355 350 354 349 345 346 348 346 15 49 49 311 348 51 28 43 343 304 289 248 305 331 51 107 90 139 193 63 48 3 182 296 212 269 305 272 280 264 260 265 273 105 23 51
351 356 351 348 345 340 341 338 321 337 11 346 76 308 298 43 58 36 40 333 290 343 2 7 10 19 348 112 95 103 129 230 237 205 278 81 348 353 336 350 356 334 321 304 97 52 10
348 350 351 342 336 328 330 334 253 313 344 48 96 46 325 29 196 122 39 321 358 254 290 341 292 323 335 51 59 100 111 234 268 236 204 275 33 80 148 223 257 332 351 358 94 73 78
345 344 346 339 331 325 318 323 229 261 349 76 38 212 195 342 10 89 107 311 3 9 321 22 24 44 52 45 44 51 320 310 284 293 51 100 53 39 6 11 2 357 356 16 71 135 110
341 344 344 339 338 328 312 277 146 193 357 52 103 116 285 77 332 55 334 266 49 357 29 348 43 16 58 85 55 36 4 14 43 331 27 36 95 46 10 14 52 21 9 25 48 73 89
340 340 347 340 340 336 311 210 155 175 141 356 297 317 80 333 316 358 229 315 60 6 24 53 323 77 40 349 314 276 323 113 67 41 356 43 104 59 300 343 9 15 331 1 34 49 126
339 339 350 343 342 350 324 184 147 174 168 177 283 318 115 255 284 254 86 67 115 80 124 344 18 80 282 325 298 245 66 77 52 16 67 62 75 106 239 29 41 246 289 309 91 41 63
340 341 349 344 349 60 86 120 150 166 195 8 327 21 38 213 237 327 159 151 264 39 97 124 301 222 315 322 26 22 337 313 298 28 360 63 83 25 109 142 233 172 233 192 164 195 134
341 346 346 347 33 110 123 132 145 166 186 57 317 319 10 121 254 321 298 187 198 203 342 338 296 265 18 50 48 67 240 276 302 333 280 351 103 117 48 98 205 235 201 127 74 283 186
335 334 340 348 31 149 180 149 167 191 218 129 265 85 73 109 301 18 320 253 323 36 160 282 293 341 32 43 63 123 263 234 293 298 310 353 13 151 230 226 280 196 163 123 144 235 168
319 319 322 340 358 196 204 195 170 184 172 122 248 167 117 100 299 11 1 349 346 26 149 281 39 333 22 42 113 262 170 244 327 248 201 185 157 210 149 145 271 159 110 165 210 120 151
285 303 306 321 309 182 189 199 202 180 127 110 259 278 120 112 237 331 12 126 10 147 145 319 201 260 196 85 295 149 296 302 191 270 311 242 186 193 177 213 222 201 200 198 165 156 162